Wind_Speed
120 122 115 113 108 102 98 91 84 76 74 78 80 79 72 66 64 64 66 73 80 78 78 81 77 75 77 78 77 81 86 83 69 75 76 78 77 87
118 111 109 106 99 93 86 79 75 72 73 75 77 78 72 60 54 55 56 66 75 77 83 86 83 85 87 84 78 87 80 78 80 81 84 88 89 85
108 106 102 97 87 80 76 72 69 69 71 72 72 74 72 61 48 43 46 53 73 80 83 81 86 85 88 87 89 88 90 95 95 96 100 93 90 91
103 98 92 84 78 72 70 67 66 66 68 68 70 68 65 62 47 32 29 40 55 81 85 82 86 90 93 93 96 94 95 97 98 101 107 100 94 97
94 88 81 74 70 68 65 62 63 64 64 64 66 64 60 57 50 36 25 28 38 60 68 74 80 88 92 97 100 97 96 101 105 107 106 105 99 98
84 78 73 70 68 65 61 60 62 62 61 63 63 61 58 53 43 33 27 23 21 26 35 49 67 78 88 94 95 99 100 101 104 108 108 108 105 101
75 71 69 67 65 60 59 60 61 62 60 60 60 60 58 52 46 41 35 33 32 30 28 29 36 45 60 76 85 90 93 99 101 100 97 93 92 92
68 67 66 64 57 55 58 61 63 62 61 61 60 61 59 56 51 47 42 40 39 39 40 41 48 49 53 57 62 67 71 75 79 83 86 89 91 91
64 63 59 53 53 57 60 60 62 61 61 62 61 61 59 56 54 52 51 50 50 50 50 52 56 58 61 65 69 72 76 79 83 87 91 93 95 97
60 54 51 54 56 59 59 60 61 61 62 62 61 61 59 56 55 55 55 54 54 56 56 59 62 65 68 72 76 79 79 81 83 86 89 91 93 95
51 51 53 55 56 58 60 61 61 62 62 62 63 63 61 60 59 59 59 57 56 59 60 62 66 70 72 76 74 73 75 80 84 88 91 92 92 93
50 52 54 55 58 59 60 61 62 62 62 63 64 64 64 65 65 65 64 63 63 64 66 70 71 69 67 67 71 75 80 82 83 85 86 87 87 86
51 53 56 57 58 58 59 60 61 63 64 65 66 68 69 70 70 69 67 66 67 68 70 74 71 66 71 73 71 70 71 70 71 70 71 72 72 71
52 55 56 56 57 58 60 62 64 65 66 66 67 67 67 67 67 68 68 68 69 71 73 75 71 70 71 72 70 62 59 59 58 57 58 59 59 59
54 54 53 53 54 56 58 60 63 64 65 66 67 68 67 67 69 71 70 70 72 73 75 73 71 72 71 67 63 57 56 50 49 48 48 48 48 48
49 49 51 54 57 59 62 64 66 68 68 68 67 68 68 69 71 71 72 73 75 74 71 68 70 70 70 61 56 52 49 46 39 40 42 40 39 40
47 50 54 58 61 62 65 68 70 72 70 68 68 69 69 71 72 73 74 76 74 70 64 65 68 69 67 57 51 47 45 40 36 32 33 34 31 34
53 55 59 62 63 65 68 71 74 74 70 67 68 69 71 72 73 75 76 73 69 66 66 64 63 64 65 56 48 44 40 38 31 30 29 30 25 32
57 59 62 65 66 69 72 75 74 69 67 68 70 71 73 76 77 74 70 69 68 68 66 63 62 61 60 55 49 39 41 35 33 29 24 23 28 30
61 63 65 69 71 74 76 75 70 68 69 70 72 75 75 72 70 69 68 66 65 64 66 62 59 59 56 53 52 40 32 36 33 33 29 27 31 30
65 67 70 73 74 76 74 70 70 69 71 74 74 71 71 70 69 67 65 64 64 65 66 63 57 53 51 49 50 46 35 29 32 35 36 33 32 30
68 71 73 75 76 73 69 69 70 73 74 70 71 70 68 68 68 65 63 62 63 63 62 62 57 51 46 46 47 46 43 32 30 34 39 34 29 28
70 73 74 74 73 69 70 72 74 70 69 68 68 68 67 66 63 63 63 64 63 63 59 57 55 51 48 44 43 45 44 39 29 31 35 34 28 28
Wind_Direction
303 304 305 305 306 306 306 307 307 308 309 310 312 316 313 305 290 276 266 252 253 253 241 248 247 248 250 254 257 261 268 273 268 265 271 271 275 282
302 303 304 304 305 305 305 306 307 308 310 313 316 320 322 317 297 280 264 248 245 248 243 252 244 246 249 255 253 257 261 264 266 267 269 271 272 274
302 303 304 304 304 303 304 305 306 308 311 314 319 324 327 330 309 293 269 247 236 244 247 245 243 243 249 248 252 258 260 263 265 266 272 273 272 272
302 302 301 301 301 301 303 303 305 308 310 315 319 324 327 333 328 307 291 255 246 240 241 242 248 244 250 248 252 256 259 262 264 267 270 273 275 273
300 299 299 299 299 300 299 300 304 307 310 315 318 323 327 332 337 341 329 312 278 256 252 253 253 246 250 251 255 258 260 262 263 265 267 269 273 273
298 298 298 298 298 297 296 298 303 305 309 313 318 322 325 327 330 336 336 328 311 293 280 269 260 256 257 258 259 262 260 263 265 266 268 271 271 272
298 297 296 297 296 293 294 297 300 303 308 312 316 319 322 324 325 325 322 316 309 301 293 289 277 273 270 268 271 267 268 268 267 268 269 271 273 273
295 296 296 295 292 293 295 296 298 302 306 310 314 317 319 320 320 318 313 307 300 296 293 286 279 277 274 272 271 270 270 271 270 270 269 269 269 270
295 295 294 292 293 296 296 298 301 303 305 307 310 314 316 317 315 313 311 309 304 299 296 291 287 284 281 278 276 274 272 272 271 271 271 271 271 271
294 292 293 295 296 296 298 299 301 304 306 307 308 309 310 310 310 310 308 304 300 296 293 290 287 285 284 283 283 282 280 277 276 275 275 275 274 274
289 291 294 295 296 297 298 302 304 305 306 306 306 306 306 307 307 309 308 304 302 300 296 292 291 291 290 287 284 280 278 276 275 274 274 274 274 274
289 294 297 298 299 300 301 302 303 303 303 303 303 304 305 305 305 305 306 304 303 303 300 299 299 296 291 287 284 282 281 279 277 276 275 274 274 274
293 296 299 300 300 300 301 300 301 302 302 303 303 303 303 304 305 305 305 305 304 304 303 303 303 298 295 293 290 288 285 282 279 277 276 274 274 274
296 297 298 299 299 300 302 304 304 303 304 303 303 303 303 305 306 307 305 304 304 305 306 306 303 301 301 300 299 296 291 287 284 281 278 277 276 273
295 296 298 300 303 305 306 308 309 308 306 304 303 305 305 305 306 307 305 305 306 306 307 306 304 304 304 305 301 299 295 291 285 281 278 276 275 273
296 298 299 301 303 305 307 307 309 309 308 306 305 305 306 306 305 305 306 306 307 308 307 305 306 307 307 308 303 300 296 293 287 283 280 278 275 273
297 301 304 303 303 305 307 307 310 311 309 307 306 305 305 305 305 305 305 307 307 307 306 306 308 309 308 309 304 302 299 296 291 282 275 273 270 268
301 301 303 305 307 306 306 307 309 310 308 307 306 306 306 305 305 306 306 306 306 306 306 307 308 308 307 306 304 302 298 296 289 283 279 272 262 263
300 301 304 307 307 307 309 310 310 309 308 307 306 306 305 305 305 306 306 307 306 305 306 307 309 307 306 304 302 301 299 295 291 285 278 268 274 269
301 302 307 308 308 309 309 308 309 308 307 307 306 305 305 305 305 306 307 307 307 307 306 308 308 306 305 302 300 300 293 292 289 284 279 276 279 276
303 305 306 307 307 308 308 308 308 309 308 306 306 306 308 307 307 308 308 306 306 306 307 307 306 304 301 298 298 297 294 285 281 278 277 278 274 271
304 304 304 306 308 308 309 309 308 307 307 308 308 308 308 308 308 307 307 307 306 306 307 307 305 303 298 294 294 292 290 284 278 277 280 281 268 261
303 303 304 307 307 308 309 308 307 307 309 308 308 307 307 307 308 307 307 308 309 308 309 306 303 301 296 294 289 286 285 286 281 271 273 275 264 254
Height
10619 10609 10598 10588 10576 10564 10553 10543 10535 10528 10518 10505 10494 10479 10463 10446 10436 10432 10434 10438 10442 10453 10462 10464 10473 10476 10479 10483 10486 10484 10484 10488 10490 10490 10489 10490 10489 10488
10601 10589 10578 10567 10557 10546 10536 10526 10518 10510 10501 10490 10477 10461 10444 10428 10416 10410 10413 10417 10425 10434 10443 10445 10452 10456 10461 10465 10467 10468 10469 10470 10471 10472 10472 10474 10474 10474
10580 10568 10558 10548 10538 10529 10521 10512 10504 10496 10486 10476 10464 10448 10432 10417 10403 10398 10398 10404 10413 10414 10421 10426 10432 10440 10441 10446 10447 10449 10450 10449 10451 10450 10449 10450 10450 10451
10561 10551 10542 10533 10524 10516 10509 10501 10493 10484 10475 10464 10453 10442 10427 10411 10399 10392 10392 10395 10399 10401 10403 10410 10417 10421 10423 10426 10428 10431 10429 10429 10428 10428 10426 10428 10427 10427
10543 10533 10525 10518 10511 10503 10496 10490 10482 10474 10465 10455 10445 10435 10423 10411 10398 10389 10389 10394 10393 10392 10395 10398 10401 10407 10408 10408 10408 10410 10411 10408 10408 10404 10402 10402 10401 10400
10524 10516 10509 10503 10496 10489 10484 10478 10471 10463 10455 10445 10435 10425 10417 10410 10402 10394 10391 10390 10387 10387 10388 10389 10388 10389 10390 10389 10391 10390 10387 10385 10383 10380 10376 10375 10374 10372
10508 10501 10494 10488 10482 10476 10470 10465 10459 10452 10444 10435 10427 10418 10410 10403 10395 10391 10388 10385 10381 10379 10378 10376 10374 10375 10374 10372 10369 10368 10365 10363 10358 10354 10351 10347 10343 10341
10493 10487 10480 10474 10468 10463 10457 10452 10446 10439 10432 10424 10416 10408 10400 10392 10387 10384 10381 10378 10373 10366 10365 10363 10358 10358 10355 10351 10345 10343 10339 10335 10331 10326 10322 10317 10313 10312
10478 10472 10466 10460 10455 10451 10446 10439 10432 10426 10419 10412 10404 10396 10389 10382 10378 10372 10366 10362 10356 10352 10350 10346 10341 10338 10333 10327 10322 10319 10315 10310 10304 10299 10293 10288 10284 10281
10465 10459 10454 10448 10444 10438 10432 10426 10419 10412 10406 10398 10391 10384 10377 10372 10366 10360 10355 10350 10344 10338 10334 10328 10320 10316 10309 10303 10297 10293 10288 10282 10275 10268 10262 10257 10252 10248
10453 10447 10442 10436 10431 10426 10419 10411 10404 10398 10391 10384 10377 10370 10364 10357 10352 10345 10339 10333 10327 10319 10313 10306 10299 10293 10286 10278 10271 10266 10261 10254 10247 10239 10233 10228 10223 10218
10441 10435 10429 10423 10417 10410 10403 10397 10390 10383 10376 10369 10361 10353 10346 10340 10333 10327 10320 10313 10307 10299 10290 10282 10276 10268 10259 10251 10245 10240 10234 10227 10218 10210 10204 10198 10195 10191
10428 10422 10416 10410 10403 10397 10390 10383 10375 10367 10360 10352 10344 10337 10330 10322 10315 10307 10299 10291 10284 10278 10268 10257 10249 10242 10233 10225 10220 10216 10205 10197 10189 10183 10176 10171 10169 10167
10415 10410 10403 10396 10389 10382 10374 10367 10359 10352 10344 10337 10329 10321 10312 10304 10296 10288 10280 10272 10263 10254 10245 10234 10224 10217 10206 10197 10188 10185 10177 10170 10164 10159 10152 10148 10145 10143
10402 10396 10389 10383 10376 10368 10361 10353 10345 10337 10328 10320 10312 10303 10295 10286 10277 10268 10260 10251 10243 10234 10223 10212 10202 10192 10183 10175 10165 10161 10153 10151 10144 10138 10133 10130 10127 10124
10389 10383 10377 10370 10363 10355 10347 10338 10330 10321 10312 10302 10294 10285 10276 10267 10258 10248 10239 10230 10222 10214 10205 10193 10182 10172 10162 10157 10147 10141 10135 10129 10129 10122 10115 10114 10113 10110
10377 10370 10363 10355 10348 10340 10332 10323 10314 10304 10294 10285 10276 10267 10258 10249 10239 10230 10220 10210 10202 10194 10187 10179 10166 10153 10143 10138 10132 10126 10118 10114 10110 10109 10105 10103 10104 10100
10362 10356 10348 10341 10333 10325 10316 10307 10297 10287 10277 10268 10258 10249 10239 10229 10219 10211 10201 10191 10182 10176 10168 10162 10153 10141 10126 10119 10117 10111 10106 10100 10098 10096 10094 10093 10095 10093
10348 10340 10333 10326 10317 10307 10298 10288 10278 10269 10259 10249 10240 10230 10220 10210 10201 10192 10183 10174 10164 10155 10148 10143 10135 10125 10114 10105 10098 10100 10091 10089 10084 10083 10083 10083 10083 10082
10332 10325 10318 10308 10298 10289 10280 10270 10261 10252 10242 10232 10222 10212 10202 10191 10182 10174 10165 10155 10147 10138 10128 10125 10119 10107 10099 10090 10080 10082 10085 10077 10074 10070 10071 10072 10070 10069
10315 10309 10300 10291 10282 10272 10262 10252 10243 10234 10224 10213 10203 10192 10183 10172 10163 10155 10147 10139 10131 10121 10110 10103 10099 10094 10085 10078 10069 10062 10065 10068 10063 10059 10058 10059 10057 10057
10300 10292 10283 10274 10263 10252 10243 10234 10225 10216 10206 10194 10184 10173 10164 10155 10146 10137 10129 10121 10113 10105 10095 10085 10078 10075 10071 10065 10057 10051 10046 10051 10052 10047 10043 10045 10045 10045
10284 10274 10265 10256 10245 10235 10226 10217 10206 10196 10187 10176 10166 10156 10147 10138 10130 10120 10111 10103 10094 10086 10079 10069 10061 10057 10052 10050 10045 10038 10033 10033 10038 10037 10032 10033 10034 10034